Home > Weather > Olathe > Past weeks

Flag for USA Past Weather in Olathe, Kansas, USA — Yesterday and Last 2 Weeks

Now
82 °F

Sunny.


Feels Like: 87 °F
Forecast: 78 / 96 °F
Wind: 7 mph from Southwest

Location: Johnson County Executive Airport

Current Time: Jul 23, 2016 at 10:13:59 AM

Latest Report: Jul 23, 2016 at 8:53 AM


Visibility: 10 mi

Pressure: 29.94 "Hg

Humidity: 74%

Dew Point: 73 °F

Location of OlatheLocation

Past Weather in Olathe — Graph

°F

Olathe Temperature Yesterday

Maximum temperature yesterday: 91 °F (at 4:53 PM)
Minimum temperature yesterday: 77 °F (at 6:53 AM)
Average temperature yesterday: 85 °F

High & Low Weather Summary for the Past Weeks

 TemperatureHumidityPressure
High94 °F (Jul 21, 2:53 PM)100% (Jul 14, 3:53 AM)30.18 "Hg (Jul 14, 3:53 AM)
Low64 °F (Jul 12, 6:00 AM)48% (Jul 21, 2:53 PM)29.71 "Hg (Jul 11, 5:53 PM)
Average80 °F76%29.97 "Hg
* Reported Jul 8 8:53 AM — Jul 23 8:53 AM, Olathe, Weather by CustomWeather, © 2016

Note: Actual official high and low records may vary slightly from our data, if they occured in-between our weather recording intervals... More about our weather records

Advertising

Olathe Weather History for the Previous 24 Hours

Scroll right to see more
 ConditionsComfort  
Time TempWeatherWind HumidityBarometerVisibility
8:53 AM
Sat, Jul 23
82 °FSunny.7 mph74%29.94 "Hg10 mi
7:53 AM79 °FSunny.7 mph82%29.94 "Hg10 mi
6:53 AM75 °FClear.7 mph90%29.92 "Hg10 mi
5:53 AM75 °FClear.6 mph88%29.91 "Hg10 mi
4:53 AM77 °FClear.3 mph85%29.92 "Hg10 mi
3:53 AM76 °FClear.5 mph88%29.93 "Hg10 mi
2:53 AM79 °FClear.3 mph82%29.94 "Hg10 mi
1:53 AM78 °FClear.6 mph82%29.94 "Hg10 mi
12:53 AM80 °FClear.7 mph76%29.94 "Hg10 mi
11:53 PM
Fri, Jul 22
81 °FClear.9 mph74%29.93 "Hg10 mi
10:53 PM82 °FClear.10 mph77%29.93 "Hg10 mi
9:53 PM84 °FClear.9 mph72%29.93 "Hg10 mi
8:53 PM86 °FSunny.9 mph72%29.91 "Hg10 mi
7:53 PM87 °FSunny.8 mph67%29.92 "Hg10 mi
6:53 PM91 °FSunny.9 mph66%29.92 "Hg10 mi
5:53 PM91 °FSunny.9 mph66%29.92 "Hg10 mi
4:53 PM91 °FSunny.14 mph66%29.93 "Hg10 mi
3:53 PM90 °FSunny.16 mph66%29.94 "Hg10 mi
2:53 PM89 °FSunny.14 mph65%29.97 "Hg10 mi
1:53 PM88 °FPassing clouds.18 mph67%30.00 "Hg10 mi
12:53 PM88 °FPassing clouds.16 mph67%30.02 "Hg10 mi
11:53 AM87 °FSunny.15 mph67%30.03 "Hg10 mi
10:53 AM87 °FPassing clouds.9 mph63%30.01 "Hg10 mi
Weather by CustomWeather, © 2016

See weather overviewHow to use our weather pages